Location: Vinland
(47.7731°N, 122.6974°W)
Time: 19:51:03
(UTC+00:00)

Vanguard 1 Rocket - Pass Details

Date: 24 March 2023
Orbit: 655 x 4220 km, 34.3° (Epoch: 05 June)

Event Time Altitude Azimuth Distance (km) Brightness Sun altitude
Rises 04:46:25 0° 201° (SSW) 8,453 12.2 -23.0°
Reaches altitude 10° 04:54:25 10° 190° (S) 7,333 11.8 -24.1°
Enters shadow 05:08:23 24° 156° (SSE) 5,594 10.9 -26.1°
